Location: Most
(50.5330°N, 13.6500°E)
Time: 15:26:51
(UTC+02:00)

ISS - Visible Passes

Search period start: 20 July 2019 00:00
Search period end: 30 July 2019 00:00
Orbit: 409 x 418 km, 51.6° (Epoch: 20 July)

Date Brightness Start Highest point End Pass type
(mag) Time Alt. Az. Time Alt. Az. Time Alt. Az.
20 Jul -3.9 01:28:56 10° WNW 01:32:16 87° N 01:35:37 10° ESE visible
20 Jul -3.1 03:05:46 10° W 03:08:45 31° SSW 03:09:06 30° SSW visible
20 Jul -3.8 23:02:48 10° WSW 23:06:09 87° NNW 23:09:30 10° ENE visible
21 Jul -3.7 00:39:37 10° W 00:42:57 76° N 00:45:17 18° E visible
21 Jul -2.3 02:16:22 10° W 02:18:01 25° W 02:18:01 25° W visible
21 Jul -3.9 22:13:29 10° WSW 22:16:50 76° SSE 22:20:10 10° ENE visible
21 Jul -3.6 23:50:15 10° W 23:53:36 71° N 23:56:37 12° E visible
22 Jul -3.1 01:26:59 10° WNW 01:29:24 41° W 01:29:24 41° W visible
22 Jul -3.5 23:00:52 10° W 23:04:13 71° N 23:07:33 10° E visible
23 Jul -4.0 00:37:39 10° WNW 00:41:00 81° SSW 00:41:10 76° SE visible
23 Jul -3.6 22:11:29 10° W 22:14:51 78° N 22:18:11 10° ENE visible
23 Jul -3.8 23:48:17 10° WNW 23:51:39 83° N 23:53:06 31° E visible
24 Jul -1.5 01:25:06 10° W 01:25:54 15° W 01:25:54 15° W visible
24 Jul -3.6 22:58:55 10° W 23:02:15 74° N 23:05:08 13° E visible
25 Jul -2.8 00:35:39 10° W 00:37:56 35° WSW 00:37:56 35° WSW visible
25 Jul -3.5 22:09:31 10° W 22:12:51 70° N 22:16:11 10° E visible
25 Jul -3.9 23:46:16 10° WNW 23:49:35 67° SSW 23:50:00 58° SSE visible
26 Jul -3.9 22:56:52 10° WNW 23:00:14 86° S 23:02:07 24° ESE visible
27 Jul -1.6 00:33:47 10° W 00:34:56 17° WSW 00:34:56 17° WSW visible
27 Jul -3.7 22:07:28 10° WNW 22:10:49 80° N 22:14:09 10° E visible
27 Jul -3.0 23:44:15 10° W 23:47:04 37° SW 23:47:04 37° SW visible
28 Jul -3.6 22:54:46 10° WNW 22:58:03 53° SSW 22:59:14 33° SE visible
29 Jul -3.8 22:05:20 10° WNW 22:08:41 73° SSW 22:11:26 14° ESE visible
29 Jul -1.8 23:42:28 10° W 23:44:15 18° SW 23:44:15 18° SW visible
